Location: Dead Woman Crossing
(43.5369°N, 106.3228°W)
Time: 03:29:41
(UTC+00:00)

UWE-3 - Pass Details

Date: 28 June 2022
Orbit: 583 x 677 km, 97.7° (Epoch: 11 August)

Event Time Altitude Azimuth Distance (km) Brightness Sun altitude
Rises 09:18:22 0° 33° (NNE) 2,880 ? -16.9°
Reaches altitude 10° 09:21:31 10° 58° (ENE) 1,990 ? -16.6°
Maximum altitude 09:23:51 14° 91° (E) 1,738 ? -16.3°
Drops below altitude 10° 09:26:11 10° 123° (ESE) 2,012 ? -16.1°
Enters shadow 09:29:19 - 148° (SSE) 2,913 ? -15.8°
